CW3363 Weather Reports


Display with metric or nautical units.
time (UTC)temp
F
wind
direction
speed
MPH
gust
MPH
rain 1hr
in
rain 24hr
in
rain mn
in
humidity
%
barometer
mb
20260902011829 82 326 0.0 0.0 0.00 0.00 0.00 81 1012.8
20260902011325 82 326 0.0 0.0 0.00 0.00 0.00 81 1013.0
20260902010839 82 326 0.0 1.0 0.00 0.00 0.00 81 1013.0
20260902010332 82 326 0.0 3.0 0.00 0.00 0.00 80 1013.0
20260902005842 82 326 0.0 3.0 0.00 0.00 0.00 80 1012.9
20260902005356 82 57 0.0 0.0 0.00 0.00 0.00 80 1012.9
20260902004828 82 57 0.0 1.0 0.00 0.00 0.00 81 1012.9
20260902004323 82 57 1.0 1.0 0.00 0.00 0.00 80 1013.3
20260902003836 82 57 0.0 1.0 0.00 0.00 0.00 81 1013.3
20260902003333 82 57 0.0 1.0 0.00 0.00 0.00 81 1013.3
20260902002827 82 57 0.0 2.0 0.00 0.00 0.00 81 1013.2
20260902002318 82 57 0.0 2.0 0.00 0.00 0.00 81 1013.2
20260902001837 82 75 1.0 2.0 0.00 0.00 0.00 81 1013.2
20260902001328 82 75 0.0 1.0 0.00 0.00 0.00 81 1012.8
20260902000841 82 90 0.0 1.0 0.00 0.00 0.00 81 1012.8
20260902000333 82 294 0.0 2.0 0.00 0.00 0.00 81 1012.8
20260901235823 82 294 0.0 2.0 0.00 0.00 0.00 81 1013.0
20260901235339 82 48 0.0 5.0 0.00 0.00 0.00 82 1013.0
20260901234830 82 78 0.0 5.0 0.00 0.00 0.00 82 1013.0
20260901234324 82 55 1.0 5.0 0.00 0.00 0.00 82 1013.3
20260901233836 82 269 3.0 5.0 0.00 0.00 0.00 82 1013.3
20260901233330 82 68 2.0 5.0 0.00 0.00 0.00 82 1013.3
20260901232842 82 74 0.0 4.0 0.00 0.00 0.00 82 1013.3
20260901232355 82 70 1.0 3.0 0.00 0.00 0.00 81 1013.3
20260901231844 82 118 1.0 3.0 0.00 0.00 0.00 81 1013.3
20260901231334 82 33 1.0 3.0 0.00 0.00 0.00 80 1013.5
20260901230826 82 43 2.0 4.0 0.00 0.00 0.00 80 1013.5
20260901230340 83 65 1.0 8.0 0.00 0.00 0.00 79 1013.5
20260901225852 83 9 1.0 8.0 0.00 0.00 0.00 78 1013.7
20260901225323 85 74 3.0 9.0 0.00 0.00 0.00 75 1013.7
20260901224837 85 276 4.0 10.0 0.00 0.00 0.00 73 1013.7
20260901224328 86 50 4.0 10.0 0.00 0.00 0.00 75 1013.8
20260901223822 87 21 3.0 10.0 0.00 0.00 0.00 74 1013.8
20260901223340 88 65 2.0 16.0 0.00 0.00 0.00 73 1013.8
20260901222832 89 125 8.0 16.0 0.00 0.00 0.00 70 1013.3
20260901222326 91 84 4.0 9.0 0.00 0.00 0.00 63 1013.3
20260901221839 91 29 2.0 5.0 0.00 0.00 0.00 63 1013.3
20260901221333 91 11 1.0 4.0 0.00 0.00 0.00 66 1013.3
20260901220825 91 88 1.0 4.0 0.00 0.00 0.00 66 1013.3
20260901220337 91 75 1.0 4.0 0.00 0.00 0.00 67 1013.3
20260901215849 91 42 0.0 2.0 0.00 0.00 0.00 67 1013.4
20260901215319 90 102 0.0 3.0 0.00 0.00 0.00 67 1013.4
20260901214831 90 73 1.0 3.0 0.00 0.00 0.00 68 1013.4
20260901214324 90 329 0.0 2.0 0.00 0.00 0.00 68 1013.6
20260901213837 90 324 1.0 3.0 0.00 0.00 0.00 67 1013.6
20260901213327 90 11 2.0 2.0 0.00 0.00 0.00 67 1013.6
20260901212840 90 55 0.0 3.0 0.00 0.00 0.00 68 1013.7
20260901212332 89 291 0.0 3.0 0.00 0.00 0.00 68 1013.7
20260901211824 90 55 1.0 3.0 0.00 0.00 0.00 68 1013.7
20260901211338 89 310 1.0 3.0 0.00 0.00 0.00 68 1013.5
20260901210830 90 359 0.0 3.0 0.00 0.00 0.00 68 1013.5
20260901210322 90 353 0.0 3.0 0.00 0.00 0.00 68 1013.5
20260901205859 89 300 1.0 3.0 0.00 0.00 0.00 68 1013.4
20260901205350 89 343 2.0 3.0 0.00 0.00 0.00 68 1013.4
20260901204825 89 350 1.0 10.0 0.00 0.00 0.00 68 1013.4
20260901204339 89 343 2.0 10.0 0.00 0.00 0.00 69 1013.7
20260901203851 89 7 3.0 6.0 0.00 0.00 0.00 68 1013.7
20260901203343 89 357 1.0 5.0 0.00 0.00 0.00 69 1013.7
20260901202833 89 250 1.0 5.0 0.00 0.00 0.00 69 1014.1
20260901202347 89 336 2.0 4.0 0.00 0.00 0.00 71 1014.1
20260901201838 88 198 2.0 4.0 0.00 0.00 0.00 72 1014.1
20260901201331 88 308 0.0 2.0 0.00 0.00 0.00 72 1014.7
20260901200858 88 308 0.0 3.0 0.00 0.00 0.00 73 1014.7
20260901200328 88 308 1.0 3.0 0.00 0.00 0.00 73 1014.7
20260901195838 88 89 0.0 4.0 0.00 0.00 0.00 73 1014.9
20260901195330 88 66 2.0 4.0 0.00 0.00 0.00 73 1014.9
20260901194840 88 104 1.0 2.0 0.00 0.00 0.00 74 1014.9
20260901194352 88 11 0.0 3.0 0.00 0.00 0.00 72 1015.0
20260901193842 88 113 1.0 3.0 0.00 0.00 0.00 72 1015.0
20260901193335 88 9 0.0 4.0 0.00 0.00 0.00 71 1015.0
20260901192826 88 8 0.0 4.0 0.00 0.00 0.00 72 1014.9
20260901192339 88 6 1.0 3.0 0.00 0.00 0.00 72 1014.9
20260901191832 88 59 1.0 3.0 0.00 0.00 0.00 72 1014.9
20260901191345 88 78 1.0 4.0 0.00 0.00 0.00 72 1014.9
20260901190858 88 63 1.0 4.0 0.00 0.00 0.00 71 1014.9
20260901190329 88 51 2.0 4.0 0.00 0.00 0.00 71 1014.9
20260901185838 88 358 2.0 4.0 0.00 0.00 0.00 71 1014.9
20260901185329 88 327 2.0 4.0 0.00 0.00 0.00 71 1014.9
20260901184841 88 333 1.0 4.0 0.00 0.00 0.00 72 1014.9
20260901184331 89 55 1.0 4.0 0.00 0.00 0.00 71 1015.1
20260901183823 89 86 0.0 3.0 0.00 0.00 0.00 71 1015.1
20260901183337 88 86 0.0 4.0 0.00 0.00 0.00 71 1015.1
20260901182830 88 312 1.0 4.0 0.00 0.00 0.00 71 1015.4
20260901182323 89 329 2.0 4.0 0.00 0.00 0.00 71 1015.4
20260901181832 89 30 2.0 5.0 0.00 0.00 0.00 71 1015.4
20260901181324 89 305 0.0 9.0 0.00 0.00 0.00 71 1015.5
20260901180835 88 345 3.0 9.0 0.00 0.00 0.00 71 1015.5
20260901180331 88 281 2.0 4.0 0.00 0.00 0.00 73 1015.5
20260901175843 88 11 1.0 4.0 0.00 0.00 0.00 72 1015.8
20260901175358 88 21 2.0 5.0 0.00 0.00 0.00 71 1015.8
20260901174827 88 85 2.0 5.0 0.00 0.00 0.00 72 1015.8
20260901174339 88 340 1.0 4.0 0.00 0.00 0.00 73 1016.1
20260901173830 88 11 2.0 6.0 0.00 0.00 0.00 74 1016.1
20260901173323 87 89 2.0 6.0 0.00 0.00 0.00 73 1016.1
20260901172834 87 75 3.0 6.0 0.00 0.00 0.00 74 1016.4
20260901172348 87 359 1.0 5.0 0.00 0.00 0.00 75 1016.4
20260901171819 87 341 2.0 5.0 0.00 0.00 0.00 75 1016.4
20260901171335 87 57 2.0 4.0 0.00 0.00 0.00 75 1016.6
20260901170825 87 41 2.0 4.0 0.00 0.00 0.00 76 1016.6
20260901170338 87 323 2.0 5.0 0.00 0.00 0.00 75 1016.6
20260901165832 87 271 1.0 5.0 0.00 0.00 0.00 75 1016.8
20260901165345 87 329 1.0 4.0 0.00 0.00 0.00 74 1016.8
20260901164837 87 56 1.0 4.0 0.00 0.00 0.00 74 1016.8
20260901164329 87 82 0.0 4.0 0.00 0.00 0.00 74 1016.7
20260901163843 87 51 1.0 4.0 0.00 0.00 0.00 75 1016.7
20260901163331 86 265 1.0 3.0 0.00 0.00 0.00 75 1016.7
20260901162823 86 314 1.0 3.0 0.00 0.00 0.00 75 1016.7
20260901162340 86 75 1.0 3.0 0.00 0.00 0.00 76 1016.7
20260901161834 86 24 1.0 5.0 0.00 0.00 0.00 75 1016.7
20260901161325 86 15 0.0 5.0 0.00 0.00 0.00 76 1016.4
20260901160837 86 317 2.0 5.0 0.00 0.00 0.00 76 1016.4
20260901160327 86 37 0.0 4.0 0.00 0.00 0.00 78 1016.4
20260901155837 86 321 1.0 4.0 0.00 0.00 0.00 78 1016.4
20260901155329 85 260 1.0 6.0 0.00 0.00 0.00 78 1016.4
20260901154842 85 273 4.0 6.0 0.00 0.00 0.00 78 1016.4
20260901154355 85 350 3.0 6.0 0.00 0.00 0.00 78 1016.5
20260901153824 85 355 2.0 4.0 0.00 0.00 0.00 78 1016.5
20260901153337 85 358 2.0 7.0 0.00 0.00 0.00 78 1016.5
20260901152830 85 293 2.0 7.0 0.00 0.00 0.00 78 1016.4
20260901152323 85 63 1.0 5.0 0.00 0.00 0.00 78 1016.4
20260901151837 85 318 2.0 6.0 0.00 0.00 0.00 79 1016.4
20260901151329 85 59 3.0 6.0 0.00 0.00 0.00 78 1016.5
20260901150841 85 61 1.0 5.0 0.00 0.00 0.00 79 1016.5
20260901150334 85 112 2.0 5.0 0.00 0.00 0.00 79 1016.5
20260901145826 85 359 0.0 5.0 0.00 0.00 0.00 80 1016.4
20260901145320 85 23 1.0 5.0 0.00 0.00 0.00 80 1016.4
20260901144833 85 98 3.0 5.0 0.00 0.00 0.00 80 1016.4
20260901144348 84 11 2.0 4.0 0.00 0.00 0.00 81 1016.5
20260901143835 84 61 1.0 5.0 0.00 0.00 0.00 81 1016.5
20260901143328 84 4 3.0 5.0 0.00 0.00 0.00 81 1016.5
20260901142843 84 10 0.0 6.0 0.00 0.00 0.00 82 1016.5
20260901142334 84 343 2.0 6.0 0.00 0.00 0.00 82 1016.5
20260901141846 83 48 1.0 5.0 0.00 0.00 0.00 84 1016.5
20260901141359 83 343 2.0 4.0 0.00 0.00 0.00 86 1016.5
20260901140852 82 47 1.0 2.0 0.00 0.00 0.00 87 1016.5
20260901140325 81 338 0.0 2.0 0.00 0.00 0.00 89 1016.5
20260901135834 81 57 0.0 2.0 0.00 0.00 0.00 89 1016.8
20260901135327 81 57 0.0 1.0 0.00 0.00 0.00 90 1016.8
20260901134841 80 57 0.0 1.0 0.00 0.00 0.00 91 1016.8
20260901134334 80 57 0.0 1.0 0.00 0.00 0.00 92 1016.6
20260901133827 80 253 0.0 0.0 0.00 0.00 0.00 92 1016.6
20260901133340 80 129 0.0 0.0 0.00 0.00 0.00 92 1016.6
20260901132834 79 129 0.0 0.0 0.00 0.00 0.00 93 1016.4
20260901132347 79 129 0.0 0.0 0.00 0.00 0.00 93 1016.4
20260901131858 79 129 0.0 0.0 0.00 0.00 0.00 93 1016.4
20260901131350 79 129 0.0 0.0 0.00 0.00 0.00 93 1016.3
20260901130825 79 129 0.0 0.0 0.00 0.00 0.00 94 1016.3
20260901130339 79 129 0.0 0.0 0.00 0.00 0.00 94 1016.3
20260901125829 79 129 0.0 0.0 0.00 0.00 0.00 94 1016.0
20260901125336 78 129 0.0 0.0 0.00 0.00 0.00 94 1016.0
20260901124829 78 129 0.0 0.0 0.00 0.00 0.00 94 1016.0
20260901124322 78 129 0.0 0.0 0.00 0.00 0.00 94 1015.9
20260901123835 78 129 0.0 0.0 0.00 0.00 0.00 94 1015.9
20260901123329 78 129 0.0 0.0 0.00 0.00 0.00 94 1015.9
20260901122843 78 129 0.0 0.0 0.00 0.00 0.00 94 1015.6
20260901122335 78 129 0.0 0.0 0.00 0.00 0.00 94 1015.6
20260901121832 78 129 0.0 0.0 0.00 0.00 0.00 94 1015.6
20260901121325 78 129 0.0 0.0 0.00 0.00 0.00 94 1015.4
20260901120837 78 129 0.0 0.0 0.00 0.00 0.00 94 1015.4
20260901120329 78 129 0.0 0.0 0.00 0.00 0.00 94 1015.4
20260901115822 78 129 0.0 0.0 0.00 0.00 0.00 94 1015.4
20260901115336 78 129 0.0 0.0 0.00 0.00 0.00 94 1015.4
20260901114826 78 129 0.0 0.0 0.00 0.00 0.00 94 1015.4
20260901114339 78 129 0.0 0.0 0.00 0.00 0.00 94 1015.4
20260901113832 78 129 0.0 0.0 0.00 0.00 0.00 93 1015.4
20260901113323 78 129 0.0 0.0 0.00 0.00 0.00 93 1015.4
20260901112837 78 129 0.0 0.0 0.00 0.00 0.00 93 1015.4
20260901112328 78 129 0.0 0.0 0.00 0.00 0.00 93 1015.4
20260901111844 78 129 0.0 0.0 0.00 0.00 0.00 93 1015.4
20260901111358 78 129 0.0 0.0 0.00 0.00 0.00 93 1015.4
20260901110828 78 129 0.0 0.0 0.00 0.00 0.00 93 1015.4
20260901110324 78 129 0.0 0.0 0.00 0.00 0.00 93 1015.4
20260901105836 78 129 0.0 0.0 0.00 0.00 0.00 93 1015.3
20260901105329 79 129 0.0 0.0 0.00 0.00 0.00 93 1015.3
20260901104825 79 129 0.0 0.0 0.00 0.00 0.00 93 1015.3
20260901104340 79 129 0.0 0.0 0.00 0.00 0.00 93 1015.2
20260901103850 79 129 0.0 0.0 0.00 0.00 0.00 93 1015.2
20260901103339 79 129 0.0 0.0 0.00 0.00 0.00 93 1015.2
20260901102830 79 129 0.0 0.0 0.00 0.00 0.00 93 1015.1
20260901102323 79 129 0.0 0.0 0.00 0.00 0.00 92 1015.1
20260901101837 79 129 0.0 0.0 0.00 0.00 0.00 92 1015.1
20260901101330 79 129 0.0 0.0 0.00 0.00 0.00 92 1015.2
20260901100844 79 129 0.0 0.0 0.00 0.00 0.00 92 1015.2
20260901100356 79 129 0.0 0.0 0.00 0.00 0.00 92 1015.2
20260901095904 79 129 0.0 0.0 0.00 0.00 0.00 92 1015.2
20260901095359 79 129 0.0 0.0 0.00 0.00 0.00 92 1015.2
20260901094832 79 129 0.0 0.0 0.00 0.00 0.00 91 1015.2
20260901094345 79 129 0.0 0.0 0.00 0.00 0.00 91 1015.3
20260901093837 79 129 0.0 0.0 0.00 0.00 0.00 91 1015.3
20260901093350 79 129 0.0 0.0 0.00 0.00 0.00 91 1015.3
20260901092841 80 129 0.0 0.0 0.00 0.00 0.00 91 1015.2
20260901092332 80 129 0.0 0.0 0.00 0.00 0.00 90 1015.2
20260901091827 80 129 0.0 0.0 0.00 0.00 0.00 90 1015.2
20260901091323 80 129 0.0 0.0 0.00 0.00 0.00 90 1015.3
20260901090900 80 129 0.0 0.0 0.00 0.00 0.00 90 1015.3
20260901090351 80 129 0.0 0.0 0.00 0.00 0.00 90 1015.3
20260901085842 80 129 0.0 0.0 0.00 0.00 0.00 90 1015.2
20260901085334 80 129 0.0 0.0 0.00 0.00 0.00 90 1015.2
20260901084846 80 129 0.0 1.0 0.00 0.00 0.00 90 1015.2
20260901084339 80 129 0.0 2.0 0.00 0.00 0.00 90 1015.3
20260901083832 80 129 0.0 2.0 0.00 0.00 0.00 89 1015.3
20260901083344 80 129 0.0 2.0 0.00 0.00 0.00 89 1015.3
20260901082855 80 129 1.0 2.0 0.00 0.00 0.00 89 1015.4
20260901082326 80 129 0.0 0.0 0.00 0.00 0.00 89 1015.4
20260901081838 80 129 0.0 0.0 0.00 0.00 0.00 89 1015.4
20260901081330 80 129 0.0 0.0 0.00 0.00 0.00 89 1015.4
20260901080822 80 129 0.0 0.0 0.00 0.00 0.00 89 1015.4
20260901080340 80 129 0.0 0.0 0.00 0.00 0.00 89 1015.4
20260901075830 80 129 0.0 0.0 0.00 0.00 0.00 89 1015.5
20260901075322 80 129 0.0 0.0 0.00 0.00 0.00 88 1015.5
20260901074836 80 129 0.0 0.0 0.00 0.00 0.00 88 1015.5
20260901074349 80 129 0.0 0.0 0.00 0.00 0.00 88 1015.4
20260901073840 80 129 0.0 0.0 0.00 0.00 0.00 88 1015.4
20260901073333 80 129 0.0 0.0 0.00 0.00 0.00 88 1015.4
20260901072826 80 129 0.0 0.0 0.00 0.00 0.00 88 1015.5
20260901072342 80 129 0.0 0.0 0.00 0.00 0.00 88 1015.5
20260901071855 80 129 0.0 0.0 0.00 0.00 0.00 87 1015.5
20260901071327 80 129 0.0 0.0 0.00 0.00 0.00 87 1015.6
20260901070838 81 129 0.0 0.0 0.00 0.00 0.00 87 1015.6
20260901070350 81 129 0.0 0.0 0.00 0.00 0.00 86 1015.6
20260901065838 81 129 0.0 0.0 0.00 0.00 0.00 86 1015.5
20260901065331 81 129 0.0 0.0 0.00 0.00 0.00 86 1015.5
20260901064824 81 129 0.0 0.0 0.00 0.00 0.00 86 1015.5
20260901064337 81 129 0.0 0.0 0.00 0.00 0.00 86 1015.6
20260901063848 81 129 0.0 0.0 0.00 0.00 0.00 86 1015.6
20260901063338 81 129 0.0 0.0 0.00 0.00 0.00 85 1015.6
20260901062832 82 129 0.0 0.0 0.00 0.00 0.00 85 1015.7
20260901062348 82 129 0.0 0.0 0.00 0.00 0.00 85 1015.7
20260901061842 82 129 0.0 0.0 0.00 0.00 0.00 85 1015.7
20260901061334 82 129 0.0 0.0 0.00 0.00 0.00 85 1015.9
20260901060843 82 129 0.0 0.0 0.00 0.00 0.00 84 1015.9
20260901060332 82 129 0.0 0.0 0.00 0.00 0.00 84 1015.9
20260901055824 82 129 0.0 0.0 0.00 0.00 0.00 83 1015.7
20260901055337 83 129 0.0 0.0 0.00 0.00 0.00 83 1015.7
20260901054829 83 129 0.0 0.0 0.00 0.00 0.00 82 1015.7
20260901054329 83 129 0.0 0.0 0.00 0.00 0.00 82 1015.6
20260901053820 83 129 0.0 0.0 0.00 0.00 0.00 81 1015.6
20260901053340 83 129 0.0 0.0 0.00 0.00 0.00 81 1015.6
20260901052832 84 129 0.0 0.0 0.00 0.00 0.00 81 1015.4
20260901052325 84 129 0.0 0.0 0.00 0.00 0.00 80 1015.4
20260901051837 84 129 0.0 0.0 0.00 0.00 0.00 79 1015.4
20260901051330 85 129 0.0 0.0 0.00 0.00 0.00 78 1015.5
20260901050822 85 129 0.0 1.0 0.00 0.00 0.00 78 1015.5
20260901050338 85 129 0.0 1.0 0.00 0.00 0.00 77 1015.5
20260901045824 85 129 0.0 2.0 0.00 0.00 0.00 77 1015.4
20260901045337 85 129 0.0 3.0 0.00 0.00 0.00 77 1015.4
20260901044826 85 129 1.0 3.0 0.00 0.00 0.00 77 1015.4
20260901044339 85 129 0.0 0.0 0.00 0.00 0.00 76 1015.4
20260901043833 85 129 0.0 0.0 0.00 0.00 0.00 76 1015.4
20260901043326 86 129 0.0 2.0 0.00 0.00 0.00 76 1015.4
20260901042840 86 129 1.0 3.0 0.00 0.00 0.00 75 1015.4
20260901042332 86 129 1.0 3.0 0.00 0.00 0.00 75 1015.4
20260901041825 86 175 1.0 6.0 0.00 0.00 0.00 74 1015.4
20260901041337 86 178 2.0 6.0 0.00 0.00 0.00 74 1015.4
20260901040831 86 183 2.0 4.0 0.00 0.00 0.00 74 1015.4
20260901040324 86 172 2.0 5.0 0.00 0.00 0.00 74 1015.4
20260901035835 86 142 3.0 6.0 0.00 0.00 0.00 74 1015.3
20260901035330 86 127 4.0 6.0 0.00 0.00 0.00 74 1015.3
20260901034828 86 144 3.0 5.0 0.00 0.00 0.00 74 1015.3
20260901034341 86 152 2.0 4.0 0.00 0.00 0.00 73 1014.9
20260901033832 86 157 1.0 4.0 0.00 0.00 0.00 73 1014.9
20260901033325 86 170 2.0 4.0 0.00 0.00 0.00 73 1014.9
20260901032838 87 185 1.0 3.0 0.00 0.00 0.00 73 1014.9
20260901032334 87 185 2.0 4.0 0.00 0.00 0.00 72 1014.9
20260901031828 87 170 3.0 4.0 0.00 0.00 0.00 72 1014.9
20260901031323 87 142 3.0 4.0 0.00 0.00 0.00 72 1014.8
20260901030840 87 143 3.0 4.0 0.00 0.00 0.00 72 1014.8
20260901030331 87 135 3.0 4.0 0.00 0.00 0.00 72 1014.8
20260901025823 87 132 2.0 3.0 0.00 0.00 0.00 72 1014.5
20260901025335 87 126 2.0 3.0 0.00 0.00 0.00 71 1014.5
20260901024831 87 204 1.0 4.0 0.00 0.00 0.00 71 1014.5
20260901024327 87 134 2.0 4.0 0.00 0.00 0.00 71 1014.3
20260901023843 87 137 2.0 3.0 0.00 0.00 0.00 70 1014.3
20260901023355 88 187 0.0 3.0 0.00 0.00 0.00 70 1014.3
20260901022827 88 155 2.0 4.0 0.00 0.00 0.00 70 1014.3
20260901022322 88 157 3.0 5.0 0.00 0.00 0.00 70 1014.3
20260901021834 88 149 3.0 6.0 0.00 0.00 0.00 70 1014.3
20260901021329 88 144 3.0 7.0 0.00 0.00 0.00 70 1014.3
20260901020840 88 178 4.0 7.0 0.00 0.00 0.00 69 1014.3
20260901020333 88 194 2.0 5.0 0.00 0.00 0.00 69 1014.3
20260901015823 88 132 3.0 5.0 0.00 0.00 0.00 69 1013.9
20260901015337 88 123 1.0 4.0 0.00 0.00 0.00 69 1013.9
20260901014830 89 130 2.0 4.0 0.00 0.00 0.00 69 1013.9
20260901014341 89 137 3.0 5.0 0.00 0.00 0.00 68 1013.9
20260901013855 89 131 2.0 5.0 0.00 0.00 0.00 68 1013.9
20260901013343 89 134 4.0 5.0 0.00 0.00 0.00 68 1013.9
20260901012903 89 118 3.0 4.0 0.00 0.00 0.00 68 1013.9
20260901012334 89 112 3.0 5.0 0.00 0.00 0.00 67 1013.9